星链-31362 (STARLINK-31362 )

导读 | 星芒AI

STARLINK-31362 是 SpaceX Starlink 项目中的一颗低轨通信卫星,属于第三代 Starlink 卫星(v1.5)。该卫星于2023年发射,旨在为全球提供高速互联网服务。它运行在约550公里的近地轨道,具备先进通信技术和激光链路,以提升网络性能和减少延迟。作为 Starlink 卫星群的一部分,STARLINK-31362 支持全球偏远地区的宽带接入,并增强 SpaceX 在全球卫星互联网市场的竞争力。

基本信息
目录编号:
58935
目录名称:
STARLINK-31362
国际标识:
2024-027E
轨道中心:
EARTH
卫星名称:
星链-31362
卫星全名:
星链-31362 (STARLINK-31362 )
卫星状态:
在轨 (已飞行678 天)
发射日期:
2024-02-10 UTC
国别 :
美国 (US)
星等 :
--
轨道信息
数据来源 国际轨道数据
星历时间: 2025-12-19T13:15:19+0800
17小时前
查看轨道信息
半长轴: 6853.364km
偏心率: 0.0001737
轨道倾角: 53.162°
近地点辐角 91.352°
升交点赤经 323.704°
平近点角 268.768°
近地点: 474.036km
远地点: 476.418km
周期: 94.106分钟
每日圈数: 15.301961
详细信息
固有亮度:
5
最大亮度:
0.3
卫星平台:
Starlink v2.0 mini
覆盖范围:
全球
运营商:
太空探索技术公司
运营商所在国:
美国
制造商(研发单位):
太空探索技术公司
制造商所在国:
美国
使用方式:
暂无
卫星简介
星链(Starlink)计划是由太空探索技术公司(SpaceX)提出的一个巨型低轨卫星互联网星座项目,计划在2019年至2024年间在太空搭建由约1.2万颗卫星组成的“星链”网络,其中1584颗将部署在地球上空550千米处的近地轨道,并从2020年开始工作。该卫星仍在工作。
2D轨道图
3D轨道图
轨道高度分析图
轨道倾角分析图
轨道综合分析图
查看轨道综合分析图